Regional Weather Roundup
Issued by NWS

Home | Current Version | Previous Version | Text Only | Print | Product List | Glossary On
Versions: 1 2 3 4 5 6 7 8 9 10 11 12 13 14 15 16 17 18 19 20 21 22 23 24 25 26 27
000
ASUS45 KCYS 261610
RWRWY

WYOMING REGIONAL WEATHER ROUNDUP
NATIONAL WEATHER SERVICE CHEYENNE WY
1000 AM MDT MON JUN 26 2017

NOTE:  "FAIR" INDICATES FEW OR NO CLOUDS BELOW 12,000 FEET
WITH NO SIGNIFICANT WEATHER AND/OR OBSTRUCTIONS TO VISIBILITY.

WYZ001-261700-
YELLOWSTONE NATIONAL PARK

CITY           SKY/WX    TMP DP  RH WIND       PRES   REMARKS
LK YELLOWSTONE   N/A     57  41  55 E3        30.39F
W YELLOWSTONE  NOT AVBL

$$
WYZ002>013-054>058-071-098>099-261700-
NORTHERN WYOMING

CITY           SKY/WX    TMP DP  RH WIND       PRES   REMARKS
JACKSON        FAIR      61  39  44 CALM      30.32F
CODY           FAIR      73  38  27 VRB6      30.20F
GREYBULL       FAIR      74  37  26 SE6       30.14F
WORLAND        FAIR      74  45  35 NW5       30.15F
SHERIDAN       FAIR      70  41  34 NE3       30.16F
BUFFALO        FAIR      70  45  40 SE6       30.21F
GILLETTE       FAIR      72  38  29 S17       30.20F
NEWCASTLE      FAIR      64  34  32 SE9G18    30.26F

$$
WYZ014>020-022>026-101>103-261700-
CENTRAL WYOMING

CITY           SKY/WX    TMP DP  RH WIND       PRES   REMARKS
BIG PINEY      FAIR      67  36  31 CALM      30.36F
PINEDALE       FAIR      66  34  30 CALM      30.36F
DUBOIS         FAIR      66  34  30 NW8       30.32F
LANDER         FAIR      68  38  33 VRB3      30.25F
RIVERTON       FAIR      68  38  33 VRB6      30.26F
CASPER         FAIR      70  39  32 SE7       30.25F
DOUGLAS        FAIR      71  40  32 S8        30.26F

$$
WYZ021-027>030-104>119-261700-
SOUTHERN WYOMING

CITY           SKY/WX    TMP DP  RH WIND       PRES   REMARKS
EVANSTON       FAIR      67  38  34 E5        30.34R
KEMMERER         N/A     68  32  26 NE9       30.36S
FORT BRIDGER   FAIR      66  35  31 N3        30.37S
ROCK SPRINGS   FAIR      68  29  23 CALM      30.33S
DIXON          FAIR      72  34  25 SW5       30.34F
RAWLINS        FAIR      69  35  28 E8        30.34F
SARATOGA       FAIR      72  32  23 S7        30.36F
LARAMIE        FAIR      67  37  33 S5        30.37F
CHEYENNE       FAIR      71  45  39 NE7       30.31F
TORRINGTON     FAIR      68  41  37 SW5       30.23F
PINE BLUFFS    FAIR      70  46  43 NW3       30.28S

$$




USA.gov is the U.S. government's official web portal to all federal, state and local government web resources and services.